Location: Cuiry
(49.3858°N, 3.7708°E)
Time: 20:46:52
(UTC+00:00)

Cosmos 2369 Rocket - Pass Details

Date: 12 January 2026
Orbit: 827 x 853 km, 71.0° (Epoch: 16 February)

Event Time Altitude Azimuth Distance (km) Brightness Sun altitude
Rises 17:20:56 0° 329° (NNW) 3,432 5.5 -11.2°
Reaches altitude 10° 17:23:26 10° 326° (NW) 2,491 4.8 -11.5°
Maximum altitude 17:29:03 61° 247° (WSW) 960 2.8 -12.4°
Drops below altitude 10° 17:34:37 10° 169° (SSE) 2,464 4.7 -13.3°
Sets 17:37:04 0° 165° (SSE) 3,391 5.4 -13.6°
